GW4674 Weather Reports


time (UTC)temp
C
wind
direction
speed
KPH
gust
KPH
rain 1hr
cm
rain 24hr
cm
rain mn
cm
humidity
%
barometer
mb
20260507210437 15 12 6.4 6.4 0.00 0.46 0.46 34 1013.7
20260507205934 15 184 1.6 3.2 0.00 0.46 0.46 40 1013.7
20260507205432 17 238 3.2 4.8 0.00 0.46 0.46 35 1013.6
20260507204928 18 314 3.2 4.8 0.00 0.46 0.46 34 1013.6
20260507204424 17 218 0.0 8.0 0.00 0.46 0.46 35 1013.6
20260507203922 17 226 4.8 12.9 0.00 0.46 0.46 32 1013.4
20260507203420 17 205 1.6 4.8 0.00 0.46 0.46 35 1013.7
20260507202916 17 230 6.4 6.4 0.00 0.46 0.46 38 1013.5
20260507202412 17 211 4.8 8.0 0.00 0.46 0.46 33 1013.6
20260507201908 18 239 3.2 8.0 0.00 0.46 0.46 34 1013.6
20260507201403 17 296 1.6 6.4 0.00 0.46 0.46 33 1013.6
20260507200900 17 316 4.8 11.3 0.00 0.46 0.46 33 1013.6
20260507200356 17 293 3.2 6.4 0.00 0.46 0.46 33 1013.7
20260507195852 17 211 3.2 6.4 0.00 0.46 0.46 36 1013.6
20260507195350 16 19 3.2 4.8 0.00 0.46 0.46 33 1013.7
20260507194842 16 22 3.2 8.0 0.00 0.46 0.46 33 1013.9
20260507194338 18 301 0.0 6.4 0.00 0.46 0.46 34 1014.0
20260507193834 16 356 6.4 12.9 0.00 0.46 0.46 34 1013.8
20260507193332 17 15 3.2 6.4 0.00 0.46 0.46 32 1013.8
20260507192827 17 264 3.2 8.0 0.00 0.46 0.46 36 1014.0
20260507192324 16 198 1.6 8.0 0.00 0.46 0.46 36 1014.0
20260507191820 18 5 1.6 6.4 0.00 0.46 0.46 35 1014.1
20260507191311 17 302 3.2 8.0 0.00 0.46 0.46 31 1014.2
20260507190808 17 261 3.2 9.7 0.00 0.46 0.46 33 1014.2
20260507190307 15 228 3.2 11.3 0.00 0.46 0.46 34 1014.2
20260507185805 16 4 3.2 9.7 0.00 0.46 0.46 37 1014.4
20260507185305 17 19 4.8 9.7 0.00 0.46 0.46 34 1014.6
20260507184758 16 0 4.8 8.0 0.00 0.46 0.46 38 1014.5
20260507184257 16 347 4.8 6.4 0.00 0.46 0.46 34 1014.6
20260507183753 16 7 8.0 8.0 0.00 0.46 0.46 33 1014.9
20260507183250 17 243 6.4 8.0 0.00 0.46 0.46 37 1014.6
20260507182748 17 322 3.2 6.4 0.00 0.46 0.46 34 1014.5
20260507182248 16 223 4.8 6.4 0.00 0.46 0.46 33 1014.7
20260507181745 16 12 3.2 8.0 0.00 0.46 0.46 34 1014.7
20260507181241 16 237 3.2 4.8 0.00 0.46 0.46 37 1014.7
20260507180737 16 213 4.8 9.7 0.00 0.46 0.46 34 1014.9
20260507180235 15 16 6.4 9.7 0.00 0.46 0.46 34 1014.9
20260507175730 16 226 6.4 8.0 0.00 0.46 0.46 36 1015.0
20260507175227 15 15 6.4 9.7 0.00 0.46 0.46 34 1015.0
20260507174725 14 6 3.2 6.4 0.00 0.46 0.46 35 1015.0
20260507174222 14 0 6.4 12.9 0.00 0.46 0.46 35 1015.1
20260507173720 15 6 8.0 11.3 0.00 0.46 0.46 36 1015.2
20260507173216 14 354 3.2 6.4 0.00 0.46 0.46 38 1015.2
20260507172713 14 34 3.2 9.7 0.00 0.46 0.46 35 1015.3
20260507172210 15 260 1.6 11.3 0.00 0.46 0.46 43 1015.6
20260507171704 15 209 4.8 9.7 0.00 0.46 0.46 37 1015.4
20260507171202 14 205 0.0 6.4 0.00 0.46 0.46 42 1015.4
20260507170659 15 346 1.6 8.0 0.00 0.46 0.46 35 1015.9
20260507170156 16 240 6.4 9.7 0.00 0.46 0.46 36 1015.8
20260507165651 13 266 3.2 9.7 0.00 0.46 0.46 38 1016.0
20260507165148 15 84 1.6 11.3 0.00 0.46 0.46 35 1016.0
20260507164643 15 243 0.0 9.7 0.00 0.46 0.46 39 1015.8
20260507164141 15 337 3.2 8.0 0.00 0.46 0.46 36 1015.9
20260507163638 16 234 6.4 9.7 0.00 0.46 0.46 39 1016.1
20260507163136 13 209 3.2 6.4 0.00 0.46 0.46 40 1016.1
20260507162631 13 340 4.8 9.7 0.00 0.46 0.46 36 1016.3
20260507162128 13 314 3.2 11.3 0.00 0.46 0.46 38 1016.2
20260507161624 13 9 8.0 8.0 0.00 0.46 0.46 37 1016.1
20260507161121 13 20 0.0 6.4 0.00 0.46 0.46 36 1016.3
20260507160617 13 161 3.2 6.4 0.00 0.46 0.46 42 1016.3
20260507160114 13 307 0.0 4.8 0.00 0.46 0.46 38 1016.5
20260507155609 13 291 1.6 4.8 0.00 0.46 0.46 37 1016.3
20260507155106 13 288 1.6 4.8 0.00 0.46 0.46 39 1016.4
20260507154603 13 240 4.8 9.7 0.00 0.46 0.46 39 1016.6
20260507154100 12 49 3.2 9.7 0.00 0.46 0.46 39 1016.8
20260507153557 12 341 4.8 9.7 0.00 0.46 0.46 40 1016.7
20260507153053 12 273 4.8 6.4 0.00 0.46 0.46 41 1016.6
20260507152549 13 300 3.2 6.4 0.00 0.46 0.46 47 1016.8
20260507152046 12 341 4.8 9.7 0.00 0.46 0.46 42 1016.9
20260507151542 12 349 3.2 6.4 0.00 0.46 0.46 39 1016.9
20260507151039 12 234 3.2 9.7 0.00 0.46 0.46 42 1016.8
20260507150536 12 296 3.2 9.7 0.00 0.46 0.46 41 1016.8
20260507150028 11 353 4.8 11.3 0.00 0.46 0.46 41 1016.8
20260507145527 11 356 4.8 8.0 0.00 0.46 0.46 47 1016.9
20260507145026 12 239 4.8 11.3 0.00 0.46 0.46 55 1016.8
20260507144522 11 226 1.6 6.4 0.00 0.46 0.46 49 1016.7
20260507144020 11 86 3.2 9.7 0.00 0.46 0.46 43 1016.8
20260507143517 11 120 1.6 8.0 0.00 0.46 0.46 49 1016.8
20260507143014 11 232 4.8 8.0 0.00 0.46 0.46 50 1016.7
20260507142509 11 350 9.7 9.7 0.00 0.46 0.46 52 1016.9
20260507142007 10 3 6.4 9.7 0.00 0.46 0.46 49 1016.9
20260507141502 11 262 3.2 4.8 0.00 0.46 0.46 54 1016.9
20260507140959 11 29 3.2 14.5 0.00 0.46 0.46 51 1016.9
20260507140456 10 214 0.0 4.8 0.00 0.46 0.46 54 1017.0
20260507135953 10 12 9.7 12.9 0.00 0.46 0.46 53 1016.8
20260507135450 10 306 0.0 11.3 0.00 0.46 0.46 56 1017.0
20260507134947 10 208 3.2 6.4 0.00 0.46 0.46 71 1016.8
20260507134444 10 228 3.2 6.4 0.00 0.46 0.46 72 1016.9
20260507133940 9 252 4.8 8.0 0.00 0.46 0.46 75 1016.9
20260507133436 10 286 0.0 3.2 0.00 0.46 0.46 81 1016.9
20260507132935 10 320 0.0 9.7 0.00 0.46 0.46 77 1016.7
20260507132430 10 190 6.4 6.4 0.00 0.46 0.46 82 1016.7
20260507131927 10 231 3.2 6.4 0.00 0.46 0.46 83 1016.9
20260507131424 10 300 3.2 6.4 0.00 0.46 0.46 84 1016.9
20260507130921 10 325 3.2 6.4 0.00 0.46 0.46 86 1016.9
20260507130418 10 351 1.6 4.8 0.00 0.46 0.46 84 1016.8
20260507125917 9 311 0.0 8.0 0.00 0.46 0.46 82 1016.6
20260507125414 9 10 1.6 8.0 0.00 0.46 0.46 84 1016.7
20260507124912 8 9 4.8 6.4 0.00 0.46 0.46 84 1016.6
20260507124407 8 111 0.0 8.0 0.00 0.46 0.46 86 1016.6
20260507123906 8 336 6.4 8.0 0.00 0.46 0.46 87 1016.7
20260507123403 8 108 3.2 12.9 0.00 0.46 0.46 87 1016.8
20260507122859 8 187 1.6 11.3 0.00 0.46 0.46 92 1016.8
20260507122355 8 209 3.2 16.1 0.00 0.46 0.46 92 1016.6
20260507121851 8 8 1.6 4.8 0.00 0.46 0.46 95 1016.8
20260507121346 8 240 1.6 4.8 0.00 0.46 0.46 95 1016.7
20260507120843 8 67 3.2 3.2 0.00 0.46 0.46 95 1016.7
20260507120340 8 270 4.8 6.4 0.00 0.46 0.46 95 1016.7
20260507115836 8 231 0.0 4.8 0.00 0.46 0.46 96 1016.5
20260507115332 7 282 0.0 4.8 0.00 0.46 0.46 96 1016.5
20260507114828 7 192 1.6 4.8 0.00 0.46 0.46 97 1016.4
20260507114325 7 267 4.8 6.4 0.00 0.46 0.46 97 1016.5
20260507113823 7 288 3.2 6.4 0.00 0.46 0.46 97 1016.6
20260507113319 7 285 3.2 4.8 0.00 0.46 0.46 98 1016.5
20260507112817 7 200 1.6 4.8 0.00 0.46 0.46 98 1016.4
20260507112314 8 235 3.2 4.8 0.00 0.46 0.46 98 1016.5
20260507111812 8 222 0.0 3.2 0.00 0.46 0.46 98 1016.5
20260507111308 8 254 0.0 3.2 0.00 0.46 0.46 98 1016.4
20260507110804 8 266 1.6 3.2 0.00 0.46 0.46 97 1016.2
20260507110300 8 242 1.6 4.8 0.00 0.46 0.46 98 1016.2
20260507105758 8 291 1.6 6.4 0.00 0.46 0.46 98 1016.1
20260507105254 8 223 3.2 6.4 0.00 0.46 0.46 99 1016.1
20260507104751 8 156 1.6 4.8 0.00 0.46 0.46 99 1016.0
20260507104248 8 178 1.6 6.4 0.00 0.46 0.46 99 1016.0
20260507103744 8 192 1.6 4.8 0.00 0.46 0.46 99 1015.9
20260507103240 8 236 3.2 6.4 0.00 0.46 0.46 99 1015.8
20260507102736 7 300 3.2 6.4 0.00 0.46 0.46 99 1015.7
20260507102233 8 268 0.0 4.8 0.00 0.46 0.46 99 1015.6
20260507101729 8 212 1.6 4.8 0.00 0.46 0.46 99 1015.4
20260507101225 8 302 0.0 4.8 0.00 0.46 0.46 99 1015.8
20260507100722 8 235 1.6 4.8 0.00 0.46 0.46 99 1015.6
20260507100220 8 280 1.6 6.4 0.00 0.46 0.46 99 1015.6
20260507095718 8 261 3.2 4.8 0.00 0.46 0.46 99 1015.4
20260507095214 8 147 1.6 4.8 0.00 0.46 0.46 99 1015.2
20260507094711 8 123 0.0 3.2 0.00 0.46 0.46 99 1015.2
20260507094208 8 233 4.8 4.8 0.00 0.46 0.46 99 1015.3
20260507093705 8 155 1.6 4.8 0.00 0.46 0.46 99 1015.0
20260507093204 8 115 3.2 4.8 0.00 0.46 0.46 99 1015.1
20260507092700 8 153 1.6 6.4 0.00 0.46 0.46 99 1015.1
20260507092157 8 325 3.2 4.8 0.05 0.46 0.46 99 1015.0
20260507091653 8 159 3.2 4.8 0.05 0.46 0.46 99 1015.1
20260507091150 8 267 0.0 3.2 0.00 0.43 0.43 99 1014.9
20260507090645 8 229 1.6 4.8 0.00 0.43 0.43 99 1015.0
20260507090143 8 67 3.2 3.2 0.00 0.43 0.43 99 1015.0
20260507085639 8 199 1.6 3.2 0.00 0.43 0.43 99 1015.4
20260507085136 8 247 3.2 3.2 0.00 0.43 0.43 99 1015.1
20260507084633 8 349 3.2 3.2 0.00 0.43 0.43 99 1015.1
20260507084130 8 215 3.2 4.8 0.05 0.43 0.43 99 1015.4
20260507083626 8 247 8.0 8.0 0.13 0.43 0.43 99 1014.9
20260507083123 8 350 3.2 6.4 0.13 0.43 0.43 99 1014.4
20260507082619 8 333 3.2 3.2 0.05 0.41 0.41 99 1015.0
20260507082116 8 309 3.2 6.4 0.00 0.41 0.41 99 1015.4
20260507081613 8 314 3.2 6.4 0.13 0.41 0.41 99 1015.2
20260507081109 8 299 1.6 3.2 0.13 0.38 0.38 99 1015.1
20260507080606 8 259 1.6 3.2 0.18 0.38 0.38 99 1015.3
20260507075557 8 287 1.6 4.8 0.13 0.36 0.36 99 1015.4
20260507075053 8 222 3.2 4.8 0.00 0.33 0.33 99 1015.8
20260507074550 8 303 1.6 3.2 0.05 0.33 0.33 99 1015.1
20260507074049 8 304 4.8 4.8 0.13 0.33 0.33 99 1015.4
20260507073544 8 308 3.2 4.8 0.13 0.33 0.33 99 1015.1
20260507073041 8 298 3.2 3.2 0.18 0.30 0.30 99 1015.3
20260507072539 8 219 0.0 4.8 0.18 0.28 0.28 99 1015.2
20260507072036 8 318 0.0 3.2 0.30 0.28 0.28 99 1015.3
20260507071533 8 252 4.8 4.8 0.18 0.25 0.25 99 1015.6
20260507071030 9 312 3.2 4.8 0.13 0.23 0.23 99 1015.1
20260507070527 8 244 4.8 6.4 0.30 0.23 0.23 99 1015.7
20260507070024 8 168 0.0 6.4 0.30 0.20 0.20 98 1014.8
20260507065520 8 301 3.2 6.4 0.18 0.18 0.18 98 1014.9
20260507065017 8 269 3.2 4.8 0.18 0.15 0.15 98 1014.8
20260507064515 9 9 0.0 3.2 0.30 0.15 0.15 98 1015.1
20260507064014 9 283 1.6 3.2 0.23 0.13 0.13 98 1015.2
20260507063510 9 1 1.6 4.8 0.18 0.10 0.10 97 1015.0
20260507063008 9 163 1.6 3.2 0.18 0.08 0.08 97 1014.9
20260507062504 9 288 1.6 3.2 0.18 0.08 0.08 97 1015.0
20260507062002 9 230 1.6 3.2 0.23 0.05 0.05 95 1015.1
20260507061459 9 243 0.0 3.2 0.18 0.05 0.05 95 1015.1
20260507060957 10 235 0.0 3.2 0.00 0.00 0.00 95 1014.9
20260507060454 10 357 0.0 3.2 0.05 0.00 0.00 93 1014.1
20260507055950 10 288 1.6 4.8 0.05 0.00 0.00 93 1014.6
20260507055446 10 332 3.2 6.4 0.00 0.00 0.00 90 1014.4
20260507054943 10 212 3.2 3.2 0.00 0.00 0.00 91 1014.3
20260507054439 10 233 1.6 6.4 0.00 0.00 0.00 90 1014.4
20260507053936 10 307 3.2 6.4 0.00 0.00 0.00 89 1014.7
20260507053434 10 213 3.2 6.4 0.00 0.00 0.00 90 1014.5
20260507052932 10 233 1.6 4.8 0.00 0.00 0.00 90 1014.6
20260507052429 10 213 1.6 3.2 0.00 0.00 0.00 90 1014.7
20260507051926 10 201 3.2 3.2 0.00 0.00 0.00 91 1014.7
20260507051424 10 189 1.6 4.8 0.00 0.00 0.00 90 1014.7
20260507050921 10 263 1.6 6.4 0.00 0.00 0.00 88 1014.5
20260507050417 10 132 0.0 6.4 0.00 0.00 0.00 91 1014.7
20260507045914 10 347 6.4 6.4 0.00 0.00 0.00 89 1014.8
20260507045410 10 183 3.2 4.8 0.00 0.00 0.00 92 1014.9
20260507044902 10 251 0.0 3.2 0.00 0.00 0.00 91 1014.8
20260507044358 10 17 0.0 3.2 0.00 0.00 0.00 92 1014.6
20260507043854 10 286 1.6 3.2 0.00 0.00 0.00 91 1014.9
20260507043351 10 274 1.6 4.8 0.00 0.00 0.00 92 1015.2
20260507042847 10 106 0.0 4.8 0.00 0.00 0.00 93 1015.1
20260507042343 10 211 4.8 4.8 0.00 0.00 0.00 93 1015.2
20260507041840 10 205 4.8 6.4 0.00 0.00 0.00 94 1015.2
20260507041337 11 334 1.6 3.2 0.00 0.00 0.00 95 1015.0
20260507040834 10 27 1.6 3.2 0.00 0.00 0.00 94 1015.1
20260507040330 11 159 0.0 4.8 0.00 0.00 0.00 94 1014.9
20260507035826 10 332 0.0 3.2 0.00 0.18 0.18 93 1014.6
20260507035322 11 97 1.6 4.8 0.00 0.18 0.18 93 1014.5
20260507034820 11 26 4.8 4.8 0.00 0.18 0.18 94 1014.7
20260507034316 11 91 4.8 6.4 0.00 0.18 0.18 94 1014.8
20260507033814 11 159 0.0 6.4 0.00 0.18 0.18 95 1014.7
20260507033312 11 118 0.0 4.8 0.00 0.18 0.18 96 1014.7
20260507032809 11 20 3.2 6.4 0.00 0.18 0.18 96 1014.8
20260507032306 11 28 6.4 6.4 0.00 0.18 0.18 97 1014.8
20260507031801 11 65 3.2 6.4 0.00 0.18 0.18 97 1014.8
20260507031258 11 43 3.2 4.8 0.00 0.18 0.18 97 1014.9
20260507030755 12 172 1.6 6.4 0.00 0.18 0.18 99 1014.9
20260507030252 12 17 1.6 6.4 0.00 0.18 0.18 99 1015.0
20260507025749 14 70 1.6 1.6 0.00 0.18 0.18 99 1014.7
20260507025246 14 280 0.0 3.2 0.00 0.18 0.18 99 1014.7
20260507024745 14 171 1.6 4.8 0.00 0.18 0.18 99 1014.7
20260507024241 14 131 3.2 6.4 0.00 0.18 0.18 99 1014.5
20260507023737 14 162 3.2 6.4 0.00 0.18 0.18 99 1014.7
20260507023234 14 169 4.8 4.8 0.00 0.18 0.18 99 1014.7
20260507022731 15 173 3.2 3.2 0.00 0.18 0.18 99 1014.6
20260507022227 14 267 3.2 4.8 0.00 0.18 0.18 99 1014.7
20260507021724 15 211 1.6 4.8 0.00 0.18 0.18 99 1014.6
20260507021219 15 271 0.0 3.2 0.00 0.18 0.18 99 1014.4
20260507020718 14 264 0.0 1.6 0.00 0.18 0.18 99 1014.6
20260507020214 15 270 0.0 3.2 0.00 0.18 0.18 99 1014.5
20260507015712 15 298 1.6 3.2 0.05 0.18 0.18 99 1014.3
20260507015209 15 162 1.6 4.8 0.13 0.18 0.18 99 1014.3
20260507014705 15 222 3.2 4.8 0.05 0.18 0.18 99 1014.5
20260507014201 15 135 1.6 3.2 0.00 0.15 0.15 99 1014.4
20260507013658 15 171 3.2 3.2 0.00 0.15 0.15 99 1014.5
20260507013156 15 304 0.0 3.2 0.00 0.15 0.15 99 1014.4
20260507012653 15 126 0.0 3.2 0.00 0.15 0.15 99 1014.4
20260507012148 15 167 4.8 4.8 0.00 0.15 0.15 99 1014.4
20260507011647 15 195 3.2 4.8 0.00 0.15 0.15 99 1014.3
20260507011142 15 298 0.0 4.8 0.00 0.15 0.15 99 1014.2
20260507010637 15 180 3.2 3.2 0.00 0.15 0.15 99 1014.2
20260507010133 15 183 1.6 3.2 0.00 0.15 0.15 99 1014.1
20260507005631 15 164 3.2 3.2 0.00 0.15 0.15 99 1014.2
20260507005127 15 180 3.2 4.8 0.00 0.15 0.15 99 1014.1
20260507004624 15 121 1.6 4.8 0.00 0.15 0.15 99 1013.9
20260507004122 15 176 3.2 4.8 0.00 0.15 0.15 99 1013.9
20260507003618 15 102 3.2 6.4 0.00 0.15 0.15 99 1013.9
20260507003113 15 157 1.6 4.8 0.00 0.15 0.15 99 1014.1
20260507002609 15 155 3.2 4.8 0.00 0.15 0.15 99 1013.9
20260507002105 15 228 6.4 6.4 0.00 0.15 0.15 99 1013.9
20260507001602 15 165 3.2 4.8 0.00 0.15 0.15 99 1013.7
20260507001100 15 186 1.6 4.8 0.00 0.15 0.15 99 1014.1
20260507000556 15 171 6.4 6.4 0.00 0.15 0.15 99 1013.8
20260507000051 15 175 4.8 8.0 0.00 0.15 0.15 99 1013.7
20260506235549 15 67 1.6 6.4 0.00 0.15 0.15 99 1013.5
20260506235044 15 124 0.0 6.4 0.00 0.15 0.15 99 1013.7
20260506234542 15 135 3.2 6.4 0.00 0.15 0.15 99 1013.5
20260506234039 15 197 4.8 6.4 0.00 0.15 0.15 99 1013.6
20260506233536 15 126 1.6 4.8 0.00 0.15 0.15 99 1013.8
20260506233027 15 8 3.2 6.4 0.00 0.15 0.15 99 1013.7
20260506232523 15 151 0.0 9.7 0.00 0.15 0.15 99 1013.7
20260506232013 15 177 0.0 4.8 0.00 0.15 0.15 99 1013.8
20260506231511 15 217 8.0 8.0 0.00 0.15 0.15 99 1013.8
20260506231009 15 215 4.8 6.4 0.00 0.15 0.15 99 1013.5
20260506230504 15 229 4.8 11.3 0.00 0.15 0.15 99 1013.7
20260506230002 15 173 3.2 3.2 0.00 0.15 0.15 99 1013.6
20260506225459 15 265 6.4 6.4 0.00 0.15 0.15 99 1013.5
20260506224955 15 183 3.2 6.4 0.00 0.15 0.15 99 1013.5
20260506224452 15 205 4.8 4.8 0.00 0.15 0.15 99 1013.2
20260506223949 15 76 3.2 3.2 0.00 0.15 0.15 99 1013.4
20260506223445 15 163 1.6 8.0 0.00 0.15 0.15 99 1013.3
20260506222942 15 111 1.6 6.4 0.00 0.15 0.15 99 1013.2
20260506222438 15 239 3.2 6.4 0.00 0.15 0.15 99 1013.2
20260506221934 15 228 4.8 6.4 0.00 0.15 0.15 99 1013.3
20260506221431 15 189 3.2 4.8 0.00 0.15 0.15 99 1013.2
20260506220930 15 225 3.2 6.4 0.00 0.15 0.15 99 1013.2
20260506220425 15 181 1.6 3.2 0.00 0.15 0.15 99 1013.3
20260506215921 15 236 3.2 4.8 0.00 0.15 0.15 99 1013.1
20260506215418 15 224 3.2 6.4 0.00 0.15 0.15 99 1013.0
20260506214913 15 211 4.8 6.4 0.00 0.15 0.15 99 1012.9
20260506214411 15 212 4.8 6.4 0.00 0.15 0.15 99 1012.9
20260506213908 15 251 3.2 6.4 0.00 0.15 0.15 99 1013.0
20260506213406 15 69 3.2 6.4 0.00 0.15 0.15 99 1012.9
20260506212903 14 223 6.4 6.4 0.00 0.15 0.15 99 1013.1
20260506212358 14 216 3.2 4.8 0.00 0.15 0.15 99 1013.0
20260506211853 14 196 3.2 4.8 0.00 0.15 0.15 99 1012.9
20260506211350 14 190 1.6 4.8 0.00 0.15 0.15 99 1012.9
20260506210847 14 211 0.0 4.8 0.00 0.15 0.15 99 1013.0